Location: *
(40.4270°N, 9.4940°E)
Time: 23:23:50
(UTC+02:00)

Okean 2 - Visible Passes

Search period start: 22 July 2014 00:00
Search period end: 01 August 2014 00:00
Orbit: 571 x 587 km, 82.5° (Epoch: 21 July)

Date Brightness Start Highest point End Pass type
(mag) Time Alt. Az. Time Alt. Az. Time Alt. Az.
22 Jul 4.8 00:38:35 10° NNW 00:41:32 34° WNW 00:41:32 34° WNW visible
22 Jul 5.1 23:07:02 10° NNE 23:10:02 21° ENE 23:10:02 21° ENE visible
23 Jul 5.2 00:43:38 10° NNW 00:46:21 26° WNW 00:46:21 26° WNW visible
23 Jul 4.7 23:11:30 10° NNE 23:14:52 28° ENE 23:14:52 28° ENE visible
24 Jul 5.6 00:48:48 10° NW 00:51:11 20° WNW 00:51:11 20° WNW visible
24 Jul 4.3 23:16:04 10° N 23:19:42 38° ENE 23:19:42 38° ENE visible
25 Jul 5.9 00:54:12 10° NW 00:56:02 15° WNW 00:56:02 15° WNW visible
25 Jul 3.8 23:20:45 10° N 23:24:34 53° ENE 23:24:34 53° ENE visible
26 Jul 6.2 01:00:08 10° WNW 01:00:53 11° WNW 01:00:53 11° WNW visible
26 Jul 3.5 23:25:30 10° N 23:29:26 72° NE 23:29:26 72° NE visible
27 Jul 3.6 23:30:19 10° N 23:34:18 72° WNW 23:34:18 72° WNW visible
28 Jul 5.5 22:00:10 10° NE 22:01:57 12° ENE 22:02:52 12° E visible
28 Jul 4.0 23:35:12 10° NNW 23:39:12 52° W 23:39:12 52° W visible
29 Jul 5.2 22:04:08 10° NNE 22:06:54 17° ENE 22:07:47 16° E visible
29 Jul 4.6 23:40:10 10° NNW 23:44:04 37° W 23:44:07 37° W visible
30 Jul 4.8 22:08:27 10° NNE 22:11:49 23° ENE 22:12:42 21° E visible
30 Jul 5.1 23:45:15 10° NNW 23:48:48 27° W 23:49:02 27° W visible
31 Jul 4.4 22:12:57 10° NNE 22:16:43 31° ENE 22:17:39 28° ESE visible
31 Jul 5.5 23:50:27 10° NW 23:53:30 20° W 23:53:59 19° W visible
